Wisconsin Dells, Wisconsin, United States (53965)
Lat: 43.63N, Lon: 89.77W
Wx Zone: WIZ057
Local Info
Past Weather Observations for Wednesday, February 3, 2016

NOTE: This archive is for the closest National Weather Service station to Wisconsin Dells. Information may differ from the station used for current weather conditions.

Click here for Long-term Archive

Time Weather Temperature Dewpoint Humidity Pressure Winds Precip Visibility
23:55
Overcast
Light Snow
19°F / -7°C 12°F / -11°C 73% 30.06 in
(1018 mb)
W 6.9 mph
(W 11 kph)
- 10SM
23:35
Overcast
Light Snow
19°F / -7°C 12°F / -11°C 73% 30.06 in
(1018 mb)
W 5.8 mph
(W 9 kph)
- 10SM
23:15
Overcast
19°F / -7°C 14°F / -10°C 79% 30.04 in
(1017 mb)
W 3.5 mph
(W 6 kph)
- 10SM
22:55
Overcast
Light Snow
19°F / -7°C 14°F / -10°C 79% 30.04 in
(1017 mb)
W 5.8 mph
(W 9 kph)
- 10SM
22:35
Overcast
Light Snow
19°F / -7°C 14°F / -10°C 79% 30.04 in
(1017 mb)
WNW 4.6 mph
(WNW 7 kph)
- 7SM
22:15
Overcast
Light Snow
19°F / -7°C 14°F / -10°C 79% 30.04 in
(1017 mb)
WNW 4.6 mph
(WNW 7 kph)
- 7SM
21:55
Overcast
Light Snow
19°F / -7°C 14°F / -10°C 79% 30.04 in
(1017 mb)
NW 5.8 mph
(NW 9 kph)
- 10SM
21:35
Overcast
Light Snow
19°F / -7°C 14°F / -10°C 79% 30.04 in
(1017 mb)
NW 6.9 mph
(NW 11 kph)
- 10SM
21:15
Overcast
21°F / -6°C 14°F / -10°C 74% 30.04 in
(1017 mb)
WNW 6.9 mph
(WNW 11 kph)
- 10SM
20:55
Overcast
21°F / -6°C 14°F / -10°C 74% 30.01 in
(1016 mb)
WNW 9.2 mph
(WNW 15 kph)
- 10SM
20:35
Overcast
21°F / -6°C 14°F / -10°C 74% 30.01 in
(1016 mb)
NW 8.1 mph
(NW 13 kph)
- 10SM
20:15
Overcast
21°F / -6°C 16°F / -9°C 80% 30.01 in
(1016 mb)
NW 10.4 mph
(NW 17 kph)
- 10SM
19:55
Overcast
21°F / -6°C 16°F / -9°C 80% 29.98 in
(1015 mb)
NW 9.2 mph
(NW 15 kph)
- 10SM
19:35
Overcast
23°F / -5°C 19°F / -7°C 86% 29.98 in
(1015 mb)
NW 12.7 mph
(NW 20 kph)
- 10SM
19:15
Overcast
23°F / -5°C 19°F / -7°C 86% 29.95 in
(1014 mb)
WNW 4.6 mph
(WNW 7 kph)
- 10SM
18:55
Overcast
23°F / -5°C 19°F / -7°C 86% 29.95 in
(1014 mb)
WNW 5.8 mph
(WNW 9 kph)
- 10SM
18:35
Overcast
23°F / -5°C 19°F / -7°C 86% 29.95 in
(1014 mb)
W 5.8 mph
(W 9 kph)
- 10SM
18:15
Partly Cloudy
21°F / -6°C 18°F / -8°C 86% 29.92 in
(1013 mb)
W 4.6 mph
(W 7 kph)
- 10SM
17:55
Partly Cloudy
23°F / -5°C 19°F / -7°C 86% 29.92 in
(1013 mb)
W 6.9 mph
(W 11 kph)
- 10SM
17:35
Mostly Cloudy
23°F / -5°C 19°F / -7°C 86% 29.89 in
(1012 mb)
W 5.8 mph
(W 9 kph)
- 10SM
17:15
Mostly Cloudy
25°F / -4°C 19°F / -7°C 80% 29.89 in
(1012 mb)
W 5.8 mph
(W 9 kph)
- 10SM
16:55
Overcast
25°F / -4°C 19°F / -7°C 80% 29.86 in
(1011 mb)
NW 6.9 mph
(NW 11 kph)
- 10SM
16:35
Overcast
27°F / -3°C 21°F / -6°C 80% 29.86 in
(1011 mb)
NW 11.5 mph
(NW 19 kph)
- 10SM
16:15
Overcast
27°F / -3°C 21°F / -6°C 80% 29.83 in
(1010 mb)
WNW 13.8 mph
(WNW 22 kph)
- 10SM
15:55
Overcast
27°F / -3°C 21°F / -6°C 80% 29.83 in
(1010 mb)
WNW 11.5 mph
(WNW 19 kph)
- 10SM
15:35
Overcast
27°F / -3°C 23°F / -5°C 86% 29.8 in
(1009 mb)
WNW 10.4 mph
(WNW 17 kph)
- 10SM
15:15
Overcast
27°F / -3°C 21°F / -6°C 80% 29.8 in
(1009 mb)
NW 9.2 mph
(NW 15 kph)
- 10SM
14:55
Overcast
28°F / -2°C 23°F / -5°C 80% 29.77 in
(1008 mb)
NW 12.7 mph
(NW 20 kph)
- 10SM
14:35
Overcast
28°F / -2°C 23°F / -5°C 80% 29.74 in
(1007 mb)
NW 11.5 mph
(NW 19 kph)
- 10SM
14:15
Overcast
Light Snow
28°F / -2°C 23°F / -5°C 80% 29.74 in
(1007 mb)
NW 12.7 mph
(NW 20 kph)
- 10SM
13:55
Overcast
Light Snow
28°F / -2°C 25°F / -4°C 86% 29.71 in
(1006 mb)
NW 13.8 mph
(NW 22 kph)
- 10SM
13:35
Overcast
Light Snow
28°F / -2°C 25°F / -4°C 86% 29.71 in
(1006 mb)
NW 10.4 mph
(NW 17 kph)
- 10SM
13:15
Overcast
28°F / -2°C 25°F / -4°C 86% 29.71 in
(1006 mb)
NW 13.8 mph
(NW 22 kph)
- 10SM
12:55
Overcast
28°F / -2°C 25°F / -4°C 86% 29.71 in
(1006 mb)
NW 11.5 mph
(NW 19 kph)
- 10SM
12:35
Overcast
30°F / -1°C 27°F / -3°C 86% 29.68 in
(1005 mb)
NW 11.5 mph
(NW 19 kph)
- 10SM
12:15
Overcast
Light Snow
30°F / -1°C 27°F / -3°C 86% 29.68 in
(1005 mb)
NW 9.2 mph
(NW 15 kph)
- 10SM
11:55
Overcast
Light Snow
30°F / -1°C 27°F / -3°C 86% 29.65 in
(1004 mb)
NW 11.5 mph
(NW 19 kph)
- 10SM
11:35
Overcast
Light Snow
30°F / -1°C 27°F / -3°C 86% 29.62 in
(1003 mb)
NNW 10.4 mph
(NNW 17 kph)
- 10SM
11:15
Overcast
Light Snow
30°F / -1°C 28°F / -2°C 93% 29.62 in
(1003 mb)
NNW 9.2 mph
(NNW 15 kph)
- 7SM
10:55
Overcast
32°F / 0°C 28°F / -2°C 87% 29.62 in
(1003 mb)
NNW 9.2 mph
(NNW 15 kph)
- 10SM
10:35
Overcast
Fog And Mist
30°F / -1°C 28°F / -2°C 93% 29.59 in
(1002 mb)
NNW 8.1 mph
(NNW 13 kph)
- 5SM
10:15
Overcast
Fog And Mist
30°F / -1°C 28°F / -2°C 93% 29.59 in
(1002 mb)
NNW 10.4 mph
(NNW 17 kph)
- 2 1/2SM
09:55
Overcast
Light Snow
30°F / -1°C 28°F / -2°C 93% 29.59 in
(1002 mb)
NW 9.2 mph
(NW 15 kph)
- 1 3/4SM
09:35
Overcast
Light Snow
30°F / -1°C 28°F / -2°C 93% 29.56 in
(1001 mb)
NW 10.4 mph
(NW 17 kph)
- 1 1/2SM
09:15
Overcast
Light Snow
30°F / -1°C 28°F / -2°C 93% 29.56 in
(1001 mb)
NNW 6.9 mph
(NNW 11 kph)
- 4SM
08:55
Overcast
Light Snow
28°F / -2°C 28°F / -2°C 100% 29.53 in
(1000 mb)
NNW 5.8 mph
(NNW 9 kph)
- 1 3/4SM
08:35
Overcast
Light Snow
28°F / -2°C 28°F / -2°C 100% 29.53 in
(1000 mb)
NNW 6.9 mph
(NNW 11 kph)
- 1SM
08:15
Overcast
Snow
28°F / -2°C 28°F / -2°C 100% 29.53 in
(1000 mb)
NNW 5.8 mph
(NNW 9 kph)
- 3/4SM
07:55
Overcast
Snow
28°F / -2°C 28°F / -2°C 100% 29.5 in
(999 mb)
NNW 5.8 mph
(NNW 9 kph)
0.01 in
(0.25 mm)
1/2SM
07:35
Overcast
Snow
30°F / -1°C 28°F / -2°C 93% 29.5 in
(999 mb)
NNW 6.9 mph
(NNW 11 kph)
- 3/4SM
07:15
Overcast
Light Snow
30°F / -1°C 28°F / -2°C 93% 29.5 in
(999 mb)
NNW 5.8 mph
(NNW 9 kph)
- 1SM
06:55
Overcast
Light Snow
30°F / -1°C 28°F / -2°C 93% 29.47 in
(998 mb)
N 8.1 mph
(N 13 kph)
- 1SM
06:35
Overcast
Light Snow
30°F / -1°C 30°F / -1°C 100% 29.47 in
(998 mb)
NNW 9.2 mph
(NNW 15 kph)
- 1SM
06:15
Overcast
Light Snow
30°F / -1°C 30°F / -1°C 100% 29.47 in
(998 mb)
NNW 5.8 mph
(NNW 9 kph)
- 3/4SM
05:55
Overcast
Unknown Precip
32°F / 0°C 32°F / 0°C 100% 29.47 in
(998 mb)
NW 3.5 mph
(NW 6 kph)
- 2SM
05:35
Overcast
Unknown Precip
32°F / 0°C 32°F / 0°C 100% 29.44 in
(997 mb)
N 4.6 mph
(N 7 kph)
- 1 1/2SM
05:15
Overcast
Fog And Mist
32°F / 0°C 32°F / 0°C 100% 29.44 in
(997 mb)
NNE 5.8 mph
(NNE 9 kph)
- 3SM
04:55
Overcast
Fog And Mist
32°F / 0°C 32°F / 0°C 100% 29.44 in
(997 mb)
N 4.6 mph
(N 7 kph)
- 3SM
04:35
Overcast
Fog And Mist
32°F / 0°C 32°F / 0°C 100% 29.44 in
(997 mb)
N 4.6 mph
(N 7 kph)
- 2 1/2SM
04:15
Overcast
Fog And Mist
32°F / 0°C 32°F / 0°C 100% 29.44 in
(997 mb)
N 4.6 mph
(N 7 kph)
- 2 1/2SM
03:55
Overcast
Fog And Mist
32°F / 0°C 32°F / 0°C 100% 29.44 in
(997 mb)
NNE 3.5 mph
(NNE 6 kph)
- 2SM
03:35
Overcast
Fog And Mist
32°F / 0°C 32°F / 0°C 100% 29.44 in
(997 mb)
NNE 5.8 mph
(NNE 9 kph)
- 2 1/2SM
03:15
Overcast
Fog And Mist
32°F / 0°C 32°F / 0°C 100% 29.44 in
(997 mb)
NE 5.8 mph
(NE 9 kph)
- 2 1/2SM
02:55
Overcast
Fog And Mist
32°F / 0°C 32°F / 0°C 100% 29.47 in
(998 mb)
NE 4.6 mph
(NE 7 kph)
- 2 1/2SM
02:35
Overcast
Fog And Mist
32°F / 0°C 32°F / 0°C 100% 29.47 in
(998 mb)
NNE 3.5 mph
(NNE 6 kph)
- 2SM
02:15
Overcast
Fog And Mist
32°F / 0°C 32°F / 0°C 100% 29.47 in
(998 mb)
NNE 3.5 mph
(NNE 6 kph)
- 2SM
01:55
Overcast
Fog And Mist
32°F / 0°C 32°F / 0°C 100% 29.47 in
(998 mb)
NE 4.6 mph
(NE 7 kph)
- 1 1/4SM
01:35
Overcast
Fog And Mist
32°F / 0°C 32°F / 0°C 100% 29.47 in
(998 mb)
NE 5.8 mph
(NE 9 kph)
- 1SM
01:15
Overcast
Fog And Mist
32°F / 0°C 32°F / 0°C 100% 29.47 in
(998 mb)
ENE 5.8 mph
(ENE 9 kph)
- 1 1/4SM
00:55
Overcast
Fog And Mist
32°F / 0°C 32°F / 0°C 100% 29.47 in
(998 mb)
ENE 8.1 mph
(ENE 13 kph)
- 1 1/2SM
00:35
Overcast
Fog And Mist
32°F / 0°C 32°F / 0°C 100% 29.47 in
(998 mb)
NE 9.2 mph
(NE 15 kph)
- 2 1/2SM
00:15
Overcast
Fog And Mist
32°F / 0°C 32°F / 0°C 100% 29.47 in
(998 mb)
NE 9.2 mph
(NE 15 kph)
- 3SM
Time Weather Temperature Dewpoint Humidity Pressure Winds Precip Visibility


Weather for websites

WeatherForYou.com, LLC is not responsible for any damages or problems caused by this service. Current weather conditions are obtained from the closest station including government and personal stations which may have varying degrees of accuracy. Weather forecasts are derived from the NOAA NDFD. Like all things, this site belongs to Jesus Christ... He just trusts us to maintain it. If you have any questions or comments email webmaster@weatherforyou.com

Copyright © 2016, WeatherForYou.com LLC. All rights reserved.